Skip Page Navigation
NASA JPL Caltech
NASA Logo - Jet Propulsion Laboratory + View the NASA Portal
+ Center for Near-Earth Object Studies
JPL Home Earth Solar System Stars & Galaxies Technology
JPL Solar System Dynamics
BODIES ORBITS EPHEMERIDES TOOLS PHYSICAL DATA DISCOVERY FAQ SITE MAP
JPL Small-Body Database Browser
Search: [ help ]  
351834 (2006 QC95)
Classification: Main-belt Asteroid          SPK-ID: 2351834
Ephemeris | Orbit Diagram | Orbital Elements | Mission Design | Physical Parameters | Discovery Circumstances | Close-Approach Data ]

[ show orbit diagram ]
Orbital Elements at Epoch 2459000.5 (2020-May-31.0) TDB
Reference: JPL 8 (heliocentric ecliptic J2000)
 Element Value Uncertainty (1-sigma)   Units 
e .1473335327898927 6.1199e-08  
a 2.857863725519704 4.501e-08 au
q 2.436804566606802 1.7842e-07 au
i 16.05292857326358 6.7937e-06 deg
node 139.3809099962914 2.8579e-05 deg
peri 204.3214913445478 4.3391e-05 deg
M 303.1107288103852 3.8953e-05 deg
tp 2459279.361507115544
(2021-Mar-05.86150712)
0.00019589 TDB
period 1764.658615980336
4.83
4.1689e-05
1.141e-07
d
yr
n .2040054641390262 4.8195e-09 deg/d
Q 3.278922884432606 5.1642e-08 au
  Orbit Determination Parameters
   # obs. used (total)      108  
   data-arc span      6477 days (17.73 yr)  
   first obs. used      2001-08-14  
   last obs. used      2019-05-09  
   planetary ephem.      DE431  
   SB-pert. ephem.      SB431-N16  
   condition code      0  
   norm. resid. RMS      .69854  
   source      ORB  
   producer      Otto Matic  
   solution date      2019-May-30 09:27:07  

Additional Information
 Earth MOID = 1.43548 au 
 Jupiter MOID = 2.11952 au 
 T_jup = 3.230 
[ show covariance matrix ]

Ephemeris | Orbit Diagram | Orbital Elements | Mission Design | Physical Parameters | Discovery Circumstances | Close-Approach Data ]

Physical Parameter Table
Parameter Symbol Value Units Sigma Reference Notes
absolute magnitude H 16.1   n/a MPO434219  

351834 (2006 QC95)          Discovered 2006-Aug-16 by NEAT at Palomar
Reference: 20130127/Numbers.arcLast Updated: 2013-01-31

[ show close-approach data ]
Alternate Designations
 2006 QC95 = 2001 PE54 
Ephemeris | Orbit Diagram | Orbital Elements | Mission Design | Physical Parameters | Discovery Circumstances | Close-Approach Data ]
ABOUT SSD CREDITS/AWARDS PRIVACY/COPYRIGHT GLOSSARY LINKS
FirstGov 2020-Aug-08 16:30 UT
(server date/time)  
NASA Home Page
Site Manager:   Ryan S. Park
Webmaster  Alan B. Chamberlin